User: anonymous   Login
Location: Caltech
(34.1382°N, 118.1253°W)
Time: 13:15:32
(UTC-08:00)
Language:

Sapphire - Orbit

View from above orbital plane
View from above orbital plane
View from above satellite
View from above satellite

Ground track
Ground track

The orbit data is extracted from the following two-line orbital elements,

1 26932U 01043D   17016.82052041 -.00000049  00000-0  13111-4 0  9992
2 26932  67.0566 123.8610 0005216 293.5997  66.4556 14.30237064798728
Epoch (UTC): 16 January 2017 19:41:32
Eccentricity: 0.0005216
inclination: 67.0566°
perigee height: 787 km
apogee height: 794 km
right ascension of ascending node: 123.8610°
argument of perigee: 293.5997°
revolutions per day: 14.30237064
mean anomaly at epoch: 66.4556°
orbit number at epoch: 79872

The dashed part of the orbit path shows where the satellite is in the earth's shadow,  

DLR